Back to catalog

STARLINK-35529

AliveCommunicationsVLEO
NORAD 66259·PAYLOAD·🇺🇸 United States

Launched Oct 29, 2025 from Cape Canaveral Space Force Station

Loading…

Next Passes (next 24 hours)

TLE

FreshSource: CelesTrak SupGP

Epoch: Sep 14, 2026, 22:52 UTC

1 66259C 25245AB  26257.95326389 -.00019506  00000+0 -62732-3 0  2575
2 66259  53.1564 123.6532 0001161  81.1836 130.1873 15.31709212    17

Track STARLINK-35529 in real time with AllMySat

Download on the App Store